#timestamp,LO_Frequency,Hit,StdDev 
1643295615.1,286047002.1,N
1643295616.0,286047002.1,N
1643295635.8,286047004.1,N
1643295655.7,286047003.8,N
1643295675.5,286047003.7,N
1643295695.3,286047004.1,N
1643295715.2,286047011.9,N
1643295735.0,286047002.5,N
1643295735.9,286047002.5,N
1643295755.8,286047002.6,N
1643295775.6,286047001.7,N
1643295795.4,286047002.2,N
1643295815.3,286047001.6,N
1643295835.1,286047002.8,N
1643295855.8,286047004.3,N
1643295875.7,286047001.3,N
1643295895.5,286047001.6,N
1643295915.4,286047002.2,N
1643295935.2,286046999.9,N
1643295955.0,286046999.9,N
1643295955.9,286046999.9,N
1643295975.8,286047002.3,N
1643295995.6,286047000.1,N
1643296015.5,286047002.8,N
1643296035.3,286047002.6,N
1643296055.1,286047002.4,N
1643296075.9,286047002.7,N
1643296095.7,286047002.6,N
1643296115.5,286047002.6,N
1643296135.4,286047002.7,N
1643296155.2,286047002.7,N
1643296175.1,286047002.1,N
1643296176.0,286047002.1,N
1643296195.8,286047001.8,N
1643296215.6,286047002.8,N
1643296235.5,286047002.8,N
1643296255.3,286047000.8,N
1643296275.1,286047002.3,N
1643296295.9,286047001.9,N
1643296315.7,286047000.5,N
1643296335.6,286047001.1,N
1643296355.4,286047002.2,N
1643296375.2,286047000.1,N
1643296395.1,286047001.9,N
1643296396.0,286047001.9,N
1643296415.8,286046999.9,N
1643296435.6,286047000.3,N
1643296455.5,286047000.0,N
1643296475.3,286047001.1,N
1643296495.2,286047000.7,N
1643296515.9,286046999.8,N
1643296535.7,286046999.7,N
1643296555.6,286046999.8,N
1643296575.4,286046999.7,N
1643296595.3,286047000.4,N
1643296615.1,286047002.7,N
1643296616.0,286047002.7,N
1643296635.8,286047002.4,N
1643296655.7,286047001.3,N
1643296675.5,286046999.8,N
1643296695.4,286047001.9,N
1643296715.2,286047003.8,Y
1643296735.0,286047002.3,P
1643296735.9,286047002.3,P
1643296755.8,286047002.1,P
1643296775.6,286047004.3,Y
1643296795.5,286046998.8,P
1643296815.3,286046998.4,N
1643296835.1,286046998.2,N
1643296855.9,286047000.8,N
1643296875.7,286047000.7,N
1643296895.6,286046998.8,N
1643296915.4,286046997.2,N
1643296935.2,286046999.0,N
1643296955.1,286046999.4,N
1643296956.0,286046999.4,N
1643296975.8,286046999.5,N
1643296995.7,286046998.3,N
1643297015.5,286046998.3,N
1643297035.3,286047000.7,N
1643297055.2,286047000.6,N
1643297075.0,286046998.5,N
1643297075.9,286046998.5,N
1643297095.7,286046998.3,N
1643297115.6,286046998.5,N
1643297135.4,286046998.1,N
1643297155.3,286046998.3,N
1643297175.1,286047000.8,N
1643297176.0,286047000.8,N
1643297195.8,286047000.5,N
1643297215.7,286047000.6,N
1643297235.5,286047002.5,N
1643297255.3,286047000.0,N
1643297275.2,286047000.5,N
1643297295.0,286046998.2,N
1643297295.9,286046998.2,N
1643297315.8,286046998.6,N
1643297335.6,286047001.1,N
1643297355.4,286047000.7,N
1643297375.3,286047002.4,N
1643297395.1,286047002.3,N
1643297415.9,286047002.6,N
1643297435.7,286046998.6,N
1643297455.5,286047000.0,N
1643297475.4,286047000.6,N
1643297495.2,286047000.2,N
1643297515.0,286046998.1,N
1643297515.9,286046998.1,N
1643297535.8,286046998.1,N
1643297555.6,286047001.0,N
1643297575.5,286047000.7,N
1643297595.3,286047001.1,N
1643297615.1,286046998.7,N
1643297635.9,286046999.1,N
1643297655.7,286046999.2,N
1643297675.6,286046999.0,N
1643297695.4,286046998.6,N
1643297715.2,286046998.1,N
1643297735.1,286046998.2,N
1643297736.0,286046998.2,N
1643297755.8,286046998.8,N
1643297775.7,286046998.7,N
1643297795.5,286046999.0,N
1643297815.3,286046997.1,N
1643297835.2,286046997.0,N
1643297855.0,286046997.2,N
1643297855.9,286046997.2,N
1643297875.7,286046999.1,N
1643297895.6,286046998.3,N
1643297915.4,286047002.8,N
1643297935.3,286047002.4,N
1643297955.1,286047002.4,N
1643297975.8,286046998.1,N
1643297995.7,286047000.4,N
1643298015.5,286046999.9,N
1643298035.4,286047002.8,N
1643298055.2,286047000.0,N
1643298075.0,286046999.9,N
1643298075.9,286046999.9,N
1643298095.8,286047000.6,N
1643298115.6,286046998.5,N
1643298135.4,286046999.5,N
1643298155.3,286046999.0,N
1643298175.1,286046998.8,N
1643298195.9,286046998.8,N
1643298215.7,286047000.8,N
1643298235.5,286046999.0,N
1643298255.4,286046996.8,N
1643298275.2,286046997.0,N
1643298295.0,286046999.2,N
1643298296.0,286046999.2,N
1643298315.8,286047001.2,N
1643298335.6,286046998.6,N
1643298355.5,286046998.1,N
1643298375.3,286046999.6,N
1643298395.1,286046998.4,N
1643298415.9,286046998.7,N
1643298435.7,286046999.0,N
1643298455.6,286046998.6,N
1643298475.4,286046998.5,N
1643298495.2,286047000.9,N
1643298515.1,286047001.9,N
1643298516.0,286047001.9,N
1643298535.8,286047002.4,N
1643298555.6,286046999.9,N
1643298575.5,286046999.7,N
1643298595.3,286047000.2,N
1643298615.2,286047002.5,N
1643298635.9,286047002.8,N
1643298655.7,286047000.0,N
1643298675.6,286047002.2,N
1643298695.4,286046999.8,N
1643298715.2,286047000.5,N
1643298735.1,286047002.6,N
1643298736.0,286047002.6,N
1643298755.8,286047002.3,N
1643298775.7,286047000.5,N
1643298795.5,286047000.5,N
1643298815.3,286047002.3,N
1643298835.2,286047002.2,N
1643298855.0,286047002.1,N
1643298855.9,286047002.1,N
1643298875.7,286047002.5,N
1643298895.6,286047003.9,N
1643298915.4,286047001.5,N
1643298935.3,286047004.3,N
1643298955.1,286047002.2,N
1643298956.0,286047002.2,N
1643298975.8,286047002.8,N
1643298995.7,286046999.9,N
1643299015.5,286047000.7,N
1643299035.4,286047000.3,N
1643299055.2,286047000.9,N
1643299075.0,286047000.2,N
1643299075.9,286047000.2,N
1643299095.8,286047000.0,N
1643299115.6,286046999.8,N
1643299135.4,286047002.4,N
1643299155.3,286047000.3,N
1643299175.1,286047001.9,N
1643299195.9,286047001.4,N
